| time (UTC) | temp C | wind direction | speed KPH | gust KPH | rain 1hr cm | rain 24hr cm | rain mn cm | humidity % | barometer mb |
| 20260506202019 | 18 | 223 | 4.8 | 22.5 | 0.00 | 0.05 | 0.05 | 81 | 1007.8 |
| 20260506201519 | 18 | 221 | 1.6 | 22.5 | 0.00 | 0.05 | 0.05 | 81 | 1007.9 |
| 20260506201019 | 18 | 276 | 1.6 | 22.5 | 0.00 | 0.05 | 0.05 | 81 | 1007.9 |
| 20260506200519 | 18 | 207 | 0.0 | 22.5 | 0.00 | 0.05 | 0.05 | 81 | 1007.9 |
| 20260506200019 | 18 | 228 | 4.8 | 22.5 | 0.00 | 0.05 | 0.05 | 81 | 1008.0 |
| 20260506195518 | 18 | 276 | 3.2 | 22.5 | 0.00 | 0.05 | 0.05 | 80 | 1008.2 |
| 20260506195018 | 19 | 216 | 1.6 | 22.5 | 0.00 | 0.05 | 0.05 | 80 | 1008.2 |
| 20260506194518 | 19 | 272 | 3.2 | 22.5 | 0.00 | 0.05 | 0.05 | 79 | 1008.3 |
| 20260506194018 | 18 | 229 | 4.8 | 22.5 | 0.00 | 0.05 | 0.05 | 79 | 1008.3 |
| 20260506193518 | 18 | 203 | 1.6 | 22.5 | 0.00 | 0.05 | 0.05 | 80 | 1008.3 |
| 20260506193018 | 18 | 227 | 1.6 | 22.5 | 0.00 | 0.05 | 0.05 | 80 | 1008.3 |
| 20260506192518 | 18 | 224 | 3.2 | 22.5 | 0.00 | 0.05 | 0.05 | 80 | 1008.3 |
| 20260506192017 | 18 | 233 | 3.2 | 22.5 | 0.00 | 0.05 | 0.05 | 80 | 1008.4 |
| 20260506191517 | 18 | 223 | 3.2 | 22.5 | 0.00 | 0.05 | 0.05 | 81 | 1008.4 |
| 20260506191017 | 18 | 293 | 3.2 | 22.5 | 0.00 | 0.05 | 0.05 | 81 | 1008.4 |
| 20260506190517 | 18 | 228 | 4.8 | 22.5 | 0.00 | 0.05 | 0.05 | 82 | 1008.4 |
| 20260506190018 | 18 | 232 | 3.2 | 22.5 | 0.00 | 0.05 | 0.05 | 83 | 1008.4 |
| 20260506185517 | 18 | 220 | 1.6 | 22.5 | 0.00 | 0.05 | 0.05 | 83 | 1008.4 |
| 20260506185016 | 18 | 224 | 0.0 | 22.5 | 0.00 | 0.05 | 0.05 | 84 | 1008.5 |
| 20260506184516 | 18 | 215 | 3.2 | 22.5 | 0.00 | 0.05 | 0.05 | 83 | 1008.6 |
| 20260506184016 | 19 | 275 | 3.2 | 22.5 | 0.00 | 0.05 | 0.05 | 81 | 1008.6 |
| 20260506183516 | 19 | 210 | 1.6 | 22.5 | 0.00 | 0.05 | 0.05 | 79 | 1008.7 |
| 20260506183016 | 20 | 212 | 1.6 | 22.5 | 0.00 | 0.05 | 0.05 | 77 | 1008.6 |
| 20260506182516 | 20 | 295 | 3.2 | 22.5 | 0.00 | 0.05 | 0.05 | 75 | 1008.6 |
| 20260506182016 | 20 | 273 | 3.2 | 22.5 | 0.00 | 0.05 | 0.05 | 75 | 1008.6 |
| 20260506181515 | 20 | 227 | 4.8 | 22.5 | 0.00 | 0.05 | 0.05 | 76 | 1008.7 |
| 20260506181015 | 20 | 244 | 3.2 | 22.5 | 0.00 | 0.05 | 0.05 | 77 | 1008.7 |
| 20260506180515 | 20 | 225 | 1.6 | 22.5 | 0.00 | 0.05 | 0.05 | 78 | 1008.7 |
| 20260506180015 | 20 | 225 | 1.6 | 22.5 | 0.00 | 0.05 | 0.05 | 78 | 1008.8 |
| 20260506175515 | 20 | 206 | 1.6 | 22.5 | 0.00 | 0.05 | 0.05 | 79 | 1008.9 |
| 20260506175015 | 20 | 203 | 0.0 | 22.5 | 0.03 | 0.05 | 0.05 | 79 | 1008.7 |
| 20260506174515 | 20 | 210 | 1.6 | 22.5 | 0.03 | 0.05 | 0.05 | 79 | 1008.7 |
| 20260506174014 | 20 | 215 | 1.6 | 22.5 | 0.03 | 0.05 | 0.05 | 80 | 1008.7 |
| 20260506173514 | 20 | 212 | 0.0 | 22.5 | 0.03 | 0.05 | 0.05 | 80 | 1008.8 |
| 20260506173014 | 20 | 156 | 1.6 | 22.5 | 0.03 | 0.05 | 0.05 | 81 | 1008.9 |
| 20260506172514 | 19 | 227 | 1.6 | 22.5 | 0.03 | 0.05 | 0.05 | 82 | 1008.9 |
| 20260506172014 | 19 | 207 | 0.0 | 22.5 | 0.03 | 0.05 | 0.05 | 83 | 1008.9 |
| 20260506171514 | 19 | 198 | 0.0 | 22.5 | 0.05 | 0.05 | 0.05 | 83 | 1008.9 |
| 20260506171014 | 19 | 221 | 1.6 | 22.5 | 0.05 | 0.05 | 0.05 | 82 | 1009.1 |
| 20260506170514 | 18 | 221 | 1.6 | 22.5 | 0.05 | 0.05 | 0.05 | 82 | 1009.2 |
| 20260506170014 | 18 | 228 | 0.0 | 22.5 | 0.05 | 0.05 | 0.05 | 81 | 1009.5 |
| 20260506165513 | 18 | 220 | 3.2 | 22.5 | 0.05 | 0.05 | 0.05 | 82 | 1009.7 |
| 20260506165013 | 18 | 215 | 0.0 | 22.5 | 0.03 | 0.03 | 0.03 | 81 | 1009.9 |
| 20260506164513 | 18 | 197 | 1.6 | 22.5 | 0.03 | 0.03 | 0.03 | 82 | 1010.0 |
| 20260506164013 | 18 | 224 | 3.2 | 22.5 | 0.03 | 0.03 | 0.03 | 81 | 1010.1 |
| 20260506163513 | 18 | 217 | 1.6 | 22.5 | 0.03 | 0.03 | 0.03 | 80 | 1010.1 |
| 20260506163013 | 19 | 222 | 1.6 | 22.5 | 0.03 | 0.03 | 0.03 | 79 | 1010.0 |
| 20260506162512 | 19 | 245 | 3.2 | 22.5 | 0.03 | 0.03 | 0.03 | 77 | 1010.1 |
| 20260506162012 | 20 | 259 | 3.2 | 22.5 | 0.03 | 0.03 | 0.03 | 75 | 1010.3 |
| 20260506161512 | 20 | 195 | 1.6 | 22.5 | 0.00 | 0.00 | 0.00 | 73 | 1010.2 |
| 20260506161012 | 21 | 254 | 4.8 | 22.5 | 0.00 | 0.00 | 0.00 | 70 | 1010.3 |
| 20260506160512 | 21 | 219 | 1.6 | 22.5 | 0.00 | 0.00 | 0.00 | 67 | 1010.4 |
| 20260506160012 | 21 | 260 | 3.2 | 22.5 | 0.00 | 0.00 | 0.00 | 65 | 1010.2 |
| 20260506155512 | 21 | 225 | 4.8 | 22.5 | 0.00 | 0.00 | 0.00 | 64 | 1010.2 |
| 20260506155011 | 22 | 276 | 3.2 | 22.5 | 0.00 | 0.00 | 0.00 | 63 | 1010.3 |
| 20260506154511 | 22 | 227 | 4.8 | 22.5 | 0.00 | 0.00 | 0.00 | 63 | 1010.3 |
| 20260506154011 | 22 | 228 | 4.8 | 22.5 | 0.00 | 0.00 | 0.00 | 63 | 1010.3 |
| 20260506153511 | 22 | 264 | 1.6 | 22.5 | 0.00 | 0.00 | 0.00 | 64 | 1010.2 |
| 20260506153011 | 21 | 212 | 8.0 | 22.5 | 0.00 | 0.00 | 0.00 | 64 | 1010.2 |
| 20260506152511 | 21 | 237 | 4.8 | 22.5 | 0.00 | 0.00 | 0.00 | 65 | 1010.1 |
| 20260506152010 | 21 | 216 | 9.7 | 22.5 | 0.00 | 0.00 | 0.00 | 64 | 1010.1 |
| 20260506151511 | 21 | 273 | 3.2 | 22.5 | 0.00 | 0.00 | 0.00 | 64 | 1010.4 |
| 20260506151010 | 22 | 241 | 4.8 | 22.5 | 0.00 | 0.00 | 0.00 | 64 | 1010.5 |
| 20260506150510 | 22 | 232 | 8.0 | 22.5 | 0.00 | 0.00 | 0.00 | 63 | 1010.4 |
| 20260506150010 | 22 | 212 | 4.8 | 22.5 | 0.00 | 0.00 | 0.00 | 63 | 1010.6 |
| 20260506145510 | 22 | 224 | 4.8 | 22.5 | 0.00 | 0.00 | 0.00 | 63 | 1010.5 |
| 20260506145010 | 22 | 273 | 3.2 | 22.5 | 0.00 | 0.00 | 0.00 | 62 | 1010.5 |
| 20260506144509 | 22 | 166 | 1.6 | 22.5 | 0.00 | 0.00 | 0.00 | 63 | 1010.5 |
| 20260506144009 | 22 | 255 | 8.0 | 22.5 | 0.00 | 0.00 | 0.00 | 63 | 1010.3 |
| 20260506143509 | 22 | 232 | 8.0 | 22.5 | 0.00 | 0.00 | 0.00 | 63 | 1010.4 |
| 20260506143009 | 22 | 237 | 3.2 | 22.5 | 0.00 | 0.00 | 0.00 | 64 | 1010.4 |
| 20260506142509 | 22 | 271 | 1.6 | 22.5 | 0.00 | 0.00 | 0.00 | 65 | 1010.3 |
| 20260506142009 | 22 | 271 | 1.6 | 22.5 | 0.00 | 0.00 | 0.00 | 65 | 1010.3 |
| 20260506141508 | 21 | 271 | 1.6 | 22.5 | 0.00 | 0.00 | 0.00 | 65 | 1010.2 |
| 20260506141008 | 21 | 228 | 1.6 | 22.5 | 0.00 | 0.00 | 0.00 | 65 | 1010.3 |
| 20260506140508 | 22 | 250 | 8.0 | 22.5 | 0.00 | 0.00 | 0.00 | 65 | 1010.3 |
| 20260506140008 | 22 | 195 | 3.2 | 22.5 | 0.00 | 0.00 | 0.00 | 66 | 1010.3 |
| 20260506135508 | 21 | 262 | 3.2 | 22.5 | 0.00 | 0.00 | 0.00 | 65 | 1010.3 |
| 20260506135008 | 21 | 228 | 4.8 | 22.5 | 0.00 | 0.00 | 0.00 | 66 | 1010.5 |
| 20260506134507 | 21 | 254 | 4.8 | 22.5 | 0.00 | 0.00 | 0.00 | 66 | 1010.4 |
| 20260506134007 | 21 | 229 | 4.8 | 22.5 | 0.00 | 0.00 | 0.00 | 66 | 1010.6 |
| 20260506133507 | 21 | 261 | 1.6 | 22.5 | 0.00 | 0.00 | 0.00 | 66 | 1010.6 |
| 20260506133007 | 21 | 226 | 3.2 | 22.5 | 0.00 | 0.00 | 0.00 | 68 | 1010.6 |
| 20260506132507 | 21 | 233 | 3.2 | 22.5 | 0.00 | 0.00 | 0.00 | 68 | 1010.6 |
| 20260506132007 | 21 | 263 | 1.6 | 22.5 | 0.00 | 0.00 | 0.00 | 69 | 1010.7 |
| 20260506131507 | 21 | 218 | 3.2 | 22.5 | 0.00 | 0.00 | 0.00 | 69 | 1010.8 |
| 20260506131006 | 20 | 204 | 1.6 | 22.5 | 0.00 | 0.00 | 0.00 | 70 | 1010.7 |
| 20260506130506 | 20 | 201 | 4.8 | 22.5 | 0.00 | 0.00 | 0.00 | 70 | 1010.8 |
| 20260506130006 | 20 | 212 | 1.6 | 22.5 | 0.00 | 0.00 | 0.00 | 71 | 1010.8 |
| 20260506125506 | 20 | 214 | 3.2 | 22.5 | 0.00 | 0.00 | 0.00 | 72 | 1010.7 |
| 20260506125006 | 20 | 210 | 3.2 | 22.5 | 0.00 | 0.00 | 0.00 | 72 | 1010.8 |
| 20260506124506 | 20 | 233 | 1.6 | 22.5 | 0.00 | 0.00 | 0.00 | 73 | 1010.7 |
| 20260506124005 | 19 | 224 | 4.8 | 22.5 | 0.00 | 0.00 | 0.00 | 73 | 1010.7 |
| 20260506123505 | 19 | 192 | 3.2 | 22.5 | 0.00 | 0.00 | 0.00 | 74 | 1010.7 |
| 20260506123005 | 19 | 231 | 3.2 | 22.5 | 0.00 | 0.00 | 0.00 | 74 | 1010.8 |
| 20260506122505 | 19 | 226 | 1.6 | 22.5 | 0.00 | 0.00 | 0.00 | 74 | 1010.9 |
| 20260506122005 | 19 | 222 | 3.2 | 22.5 | 0.00 | 0.00 | 0.00 | 74 | 1010.8 |
| 20260506121505 | 19 | 224 | 8.0 | 22.5 | 0.00 | 0.00 | 0.00 | 73 | 1010.8 |
| 20260506121004 | 19 | 223 | 4.8 | 22.5 | 0.00 | 0.00 | 0.00 | 73 | 1010.8 |
| 20260506120504 | 19 | 212 | 3.2 | 22.5 | 0.00 | 0.00 | 0.00 | 73 | 1010.9 |
| 20260506120004 | 20 | 232 | 3.2 | 22.5 | 0.00 | 0.00 | 0.00 | 73 | 1011.0 |
| 20260506115504 | 20 | 229 | 3.2 | 22.5 | 0.00 | 0.00 | 0.00 | 73 | 1011.1 |
| 20260506115004 | 20 | 223 | 3.2 | 22.5 | 0.00 | 0.00 | 0.00 | 73 | 1011.0 |
| 20260506114504 | 20 | 141 | 3.2 | 22.5 | 0.00 | 0.00 | 0.00 | 73 | 1010.8 |
| 20260506114004 | 19 | 242 | 1.6 | 22.5 | 0.00 | 0.00 | 0.00 | 74 | 1011.1 |
| 20260506113503 | 19 | 209 | 4.8 | 22.5 | 0.00 | 0.00 | 0.00 | 75 | 1011.1 |
| 20260506113003 | 18 | 192 | 3.2 | 22.5 | 0.00 | 0.00 | 0.00 | 77 | 1011.1 |
| 20260506112503 | 18 | 235 | 3.2 | 22.5 | 0.00 | 0.00 | 0.00 | 77 | 1011.0 |
| 20260506112003 | 18 | 209 | 3.2 | 22.5 | 0.00 | 0.00 | 0.00 | 78 | 1011.2 |
| 20260506111503 | 18 | 215 | 3.2 | 22.5 | 0.00 | 0.00 | 0.00 | 78 | 1011.0 |
| 20260506111003 | 18 | 221 | 1.6 | 22.5 | 0.00 | 0.00 | 0.00 | 79 | 1011.1 |
| 20260506110503 | 17 | 216 | 3.2 | 22.5 | 0.00 | 0.00 | 0.00 | 79 | 1011.0 |
| 20260506110002 | 17 | 222 | 1.6 | 22.5 | 0.00 | 0.00 | 0.00 | 80 | 1010.9 |
| 20260506105502 | 17 | 215 | 3.2 | 22.5 | 0.00 | 0.00 | 0.00 | 81 | 1011.0 |
| 20260506105002 | 17 | 230 | 1.6 | 22.5 | 0.00 | 0.00 | 0.00 | 81 | 1010.9 |
| 20260506104502 | 17 | 214 | 1.6 | 22.5 | 0.00 | 0.00 | 0.00 | 81 | 1011.0 |
| 20260506104002 | 17 | 218 | 3.2 | 22.5 | 0.00 | 0.00 | 0.00 | 81 | 1011.1 |
| 20260506103502 | 17 | 225 | 3.2 | 22.5 | 0.00 | 0.00 | 0.00 | 81 | 1011.0 |
| 20260506103001 | 17 | 217 | 3.2 | 22.5 | 0.00 | 0.00 | 0.00 | 81 | 1011.0 |
| 20260506102501 | 17 | 202 | 3.2 | 22.5 | 0.00 | 0.00 | 0.00 | 82 | 1010.9 |
| 20260506102001 | 17 | 246 | 4.8 | 22.5 | 0.00 | 0.00 | 0.00 | 82 | 1011.0 |
| 20260506101501 | 17 | 220 | 3.2 | 22.5 | 0.00 | 0.00 | 0.00 | 82 | 1010.8 |
| 20260506101001 | 17 | 216 | 3.2 | 22.5 | 0.00 | 0.00 | 0.00 | 82 | 1010.8 |
| 20260506100501 | 17 | 215 | 1.6 | 22.5 | 0.00 | 0.00 | 0.00 | 82 | 1010.8 |
| 20260506100001 | 17 | 193 | 1.6 | 22.5 | 0.00 | 0.00 | 0.00 | 82 | 1010.8 |
| 20260506095501 | 17 | 223 | 3.2 | 22.5 | 0.00 | 0.00 | 0.00 | 82 | 1010.7 |
| 20260506095001 | 17 | 224 | 4.8 | 22.5 | 0.00 | 0.00 | 0.00 | 82 | 1010.7 |
| 20260506094500 | 17 | 203 | 4.8 | 22.5 | 0.00 | 0.00 | 0.00 | 82 | 1010.8 |
| 20260506094000 | 17 | 219 | 1.6 | 22.5 | 0.00 | 0.00 | 0.00 | 82 | 1010.8 |
| 20260506093500 | 17 | 218 | 3.2 | 22.5 | 0.00 | 0.00 | 0.00 | 82 | 1010.8 |
| 20260506093000 | 17 | 214 | 3.2 | 22.5 | 0.00 | 0.00 | 0.00 | 82 | 1010.8 |
| 20260506092500 | 17 | 208 | 1.6 | 22.5 | 0.00 | 0.00 | 0.00 | 82 | 1010.9 |
| 20260506092000 | 17 | 214 | 3.2 | 22.5 | 0.00 | 0.00 | 0.00 | 82 | 1010.9 |
| 20260506091459 | 17 | 218 | 4.8 | 22.5 | 0.00 | 0.00 | 0.00 | 82 | 1010.9 |
| 20260506090959 | 17 | 269 | 3.2 | 22.5 | 0.00 | 0.00 | 0.00 | 82 | 1010.9 |
| 20260506090459 | 17 | 211 | 3.2 | 22.5 | 0.00 | 0.00 | 0.00 | 82 | 1010.9 |
| 20260506085959 | 17 | 214 | 1.6 | 22.5 | 0.00 | 0.00 | 0.00 | 81 | 1010.9 |
| 20260506085459 | 17 | 205 | 1.6 | 22.5 | 0.00 | 0.00 | 0.00 | 81 | 1011.0 |
| 20260506084959 | 17 | 227 | 3.2 | 22.5 | 0.00 | 0.00 | 0.00 | 81 | 1011.0 |
| 20260506084459 | 17 | 259 | 3.2 | 22.5 | 0.00 | 0.00 | 0.00 | 81 | 1011.0 |
| 20260506083958 | 17 | 219 | 4.8 | 22.5 | 0.00 | 0.00 | 0.00 | 81 | 1011.0 |
| 20260506083458 | 17 | 196 | 8.0 | 22.5 | 0.00 | 0.00 | 0.00 | 81 | 1011.0 |
| 20260506082958 | 17 | 211 | 8.0 | 19.3 | 0.00 | 0.00 | 0.00 | 81 | 1011.0 |
| 20260506082458 | 17 | 224 | 3.2 | 19.3 | 0.00 | 0.00 | 0.00 | 81 | 1011.1 |
| 20260506081958 | 17 | 240 | 3.2 | 19.3 | 0.00 | 0.00 | 0.00 | 81 | 1011.2 |
| 20260506081458 | 17 | 198 | 3.2 | 19.3 | 0.00 | 0.00 | 0.00 | 81 | 1011.2 |
| 20260506080957 | 17 | 206 | 1.6 | 19.3 | 0.00 | 0.00 | 0.00 | 81 | 1011.3 |
| 20260506080457 | 17 | 223 | 3.2 | 19.3 | 0.00 | 0.00 | 0.00 | 81 | 1011.2 |
| 20260506073456 | 17 | 192 | 3.2 | 19.3 | 0.00 | 0.00 | 0.00 | 80 | 1011.2 |
| 20260506072956 | 17 | 222 | 1.6 | 19.3 | 0.00 | 0.00 | 0.00 | 80 | 1011.2 |
| 20260506072456 | 17 | 252 | 1.6 | 19.3 | 0.00 | 0.00 | 0.00 | 80 | 1011.3 |
| 20260506071956 | 17 | 215 | 3.2 | 19.3 | 0.00 | 0.00 | 0.00 | 79 | 1011.4 |
| 20260506071456 | 17 | 213 | 1.6 | 19.3 | 0.00 | 0.00 | 0.00 | 79 | 1011.4 |
| 20260506070956 | 18 | 196 | 3.2 | 19.3 | 0.00 | 0.00 | 0.00 | 78 | 1011.5 |
| 20260506070456 | 18 | 209 | 4.8 | 19.3 | 0.00 | 0.00 | 0.00 | 78 | 1011.5 |
| 20260506062454 | 18 | 214 | 4.8 | 19.3 | 0.00 | 0.00 | 0.00 | 76 | 1011.4 |
| 20260506061954 | 18 | 224 | 4.8 | 19.3 | 0.00 | 0.00 | 0.00 | 76 | 1011.3 |
| 20260506061454 | 18 | 213 | 3.2 | 19.3 | 0.00 | 0.00 | 0.00 | 75 | 1011.3 |
| 20260506060954 | 18 | 211 | 4.8 | 19.3 | 0.00 | 0.00 | 0.00 | 75 | 1011.2 |
| 20260506060454 | 18 | 205 | 4.8 | 19.3 | 0.00 | 0.00 | 0.00 | 74 | 1011.3 |
| 20260506050952 | 19 | 222 | 3.2 | 19.3 | 0.00 | 0.00 | 0.00 | 72 | 1011.7 |
| 20260506050452 | 19 | 228 | 4.8 | 19.3 | 0.00 | 0.00 | 0.00 | 72 | 1011.7 |
| 20260506044951 | 19 | 215 | 8.0 | 17.7 | 0.00 | 0.00 | 0.00 | 71 | 1011.7 |
| 20260506044451 | 19 | 221 | 3.2 | 17.7 | 0.00 | 0.00 | 0.00 | 71 | 1011.8 |
| 20260506043951 | 19 | 218 | 3.2 | 17.7 | 0.00 | 0.00 | 0.00 | 71 | 1011.8 |
| 20260506043451 | 19 | 227 | 8.0 | 17.7 | 0.00 | 0.00 | 0.00 | 71 | 1011.7 |
| 20260506042951 | 19 | 273 | 3.2 | 17.7 | 0.00 | 0.00 | 0.00 | 71 | 1011.7 |
| 20260506042451 | 19 | 240 | 3.2 | 17.7 | 0.00 | 0.00 | 0.00 | 71 | 1011.7 |
| 20260506041951 | 19 | 218 | 3.2 | 17.7 | 0.00 | 0.00 | 0.00 | 70 | 1011.7 |
| 20260506041450 | 19 | 225 | 3.2 | 17.7 | 0.00 | 0.00 | 0.00 | 70 | 1011.8 |
| 20260506040950 | 19 | 215 | 4.8 | 17.7 | 0.00 | 0.00 | 0.00 | 70 | 1011.8 |
| 20260506040450 | 19 | 237 | 8.0 | 17.7 | 0.00 | 0.00 | 0.00 | 70 | 1011.8 |
| 20260506035950 | 20 | 232 | 9.7 | 32.2 | 0.00 | 0.00 | 0.00 | 69 | 1011.7 |
| 20260506035450 | 20 | 215 | 4.8 | 32.2 | 0.00 | 0.00 | 0.00 | 69 | 1011.7 |
| 20260506034950 | 20 | 220 | 8.0 | 32.2 | 0.00 | 0.00 | 0.00 | 68 | 1011.8 |
| 20260506034450 | 20 | 216 | 3.2 | 32.2 | 0.00 | 0.00 | 0.00 | 68 | 1011.8 |
| 20260506033949 | 20 | 236 | 8.0 | 32.2 | 0.00 | 0.00 | 0.00 | 67 | 1011.8 |
| 20260506033449 | 20 | 248 | 4.8 | 32.2 | 0.00 | 0.00 | 0.00 | 67 | 1011.7 |
| 20260506032949 | 20 | 230 | 3.2 | 32.2 | 0.00 | 0.00 | 0.00 | 67 | 1011.7 |
| 20260506032449 | 20 | 213 | 4.8 | 32.2 | 0.00 | 0.00 | 0.00 | 66 | 1011.7 |
| 20260506031949 | 20 | 197 | 1.6 | 32.2 | 0.00 | 0.00 | 0.00 | 66 | 1011.7 |
| 20260506031449 | 20 | 213 | 4.8 | 32.2 | 0.00 | 0.00 | 0.00 | 65 | 1011.7 |
| 20260506030948 | 20 | 243 | 4.8 | 32.2 | 0.00 | 0.00 | 0.00 | 65 | 1011.6 |
| 20260506030448 | 20 | 235 | 4.8 | 32.2 | 0.00 | 0.00 | 0.00 | 65 | 1011.6 |
| 20260506025948 | 20 | 220 | 3.2 | 32.2 | 0.00 | 0.00 | 0.00 | 64 | 1011.7 |
| 20260506025448 | 20 | 224 | 8.0 | 32.2 | 0.00 | 0.00 | 0.00 | 64 | 1011.5 |
| 20260506024948 | 20 | 219 | 8.0 | 32.2 | 0.00 | 0.00 | 0.00 | 64 | 1011.6 |
| 20260506024448 | 20 | 228 | 3.2 | 32.2 | 0.00 | 0.00 | 0.00 | 64 | 1011.7 |
| 20260506023948 | 20 | 222 | 4.8 | 32.2 | 0.00 | 0.00 | 0.00 | 64 | 1011.7 |
| 20260506023448 | 20 | 203 | 4.8 | 32.2 | 0.00 | 0.00 | 0.00 | 64 | 1011.7 |
| 20260506022947 | 20 | 213 | 3.2 | 32.2 | 0.00 | 0.00 | 0.00 | 64 | 1011.7 |
| 20260506022447 | 20 | 219 | 4.8 | 32.2 | 0.00 | 0.00 | 0.00 | 64 | 1011.7 |
| 20260506021947 | 20 | 220 | 8.0 | 32.2 | 0.00 | 0.00 | 0.00 | 63 | 1011.6 |
| 20260506021447 | 20 | 221 | 8.0 | 32.2 | 0.00 | 0.00 | 0.00 | 63 | 1011.5 |
| 20260506020947 | 20 | 205 | 8.0 | 32.2 | 0.00 | 0.00 | 0.00 | 63 | 1011.5 |
| 20260506020447 | 20 | 226 | 8.0 | 32.2 | 0.00 | 0.00 | 0.00 | 63 | 1011.4 |
| 20260506015947 | 20 | 226 | 1.6 | 32.2 | 0.00 | 0.00 | 0.00 | 63 | 1011.5 |
| 20260506015416 | 20 | 237 | 3.2 | 32.2 | 0.00 | 0.00 | 0.00 | 63 | 1011.5 |
| 20260506014916 | 20 | 215 | 3.2 | 32.2 | 0.00 | 0.00 | 0.00 | 63 | 1011.5 |
| 20260506014416 | 20 | 231 | 3.2 | 32.2 | 0.00 | 0.00 | 0.00 | 63 | 1011.4 |
| 20260506013916 | 21 | 210 | 4.8 | 32.2 | 0.00 | 0.00 | 0.00 | 63 | 1011.4 |
| 20260506013416 | 21 | 220 | 8.0 | 32.2 | 0.00 | 0.00 | 0.00 | 62 | 1011.3 |
| 20260506012916 | 21 | 258 | 3.2 | 32.2 | 0.00 | 0.00 | 0.00 | 62 | 1011.3 |
| 20260506012415 | 21 | 204 | 4.8 | 32.2 | 0.00 | 0.00 | 0.00 | 62 | 1011.2 |
| 20260506011915 | 21 | 213 | 3.2 | 32.2 | 0.00 | 0.00 | 0.00 | 62 | 1011.1 |
| 20260506011415 | 21 | 233 | 3.2 | 32.2 | 0.00 | 0.00 | 0.00 | 62 | 1011.2 |
| 20260506010915 | 21 | 229 | 3.2 | 32.2 | 0.00 | 0.00 | 0.00 | 61 | 1011.2 |
| 20260506010415 | 21 | 121 | 1.6 | 32.2 | 0.00 | 0.00 | 0.00 | 61 | 1011.1 |
| 20260506005915 | 21 | 222 | 3.2 | 32.2 | 0.00 | 0.00 | 0.00 | 60 | 1010.9 |
| 20260506005415 | 21 | 227 | 3.2 | 32.2 | 0.00 | 0.00 | 0.00 | 60 | 1011.0 |
| 20260506004914 | 21 | 232 | 4.8 | 32.2 | 0.00 | 0.00 | 0.00 | 59 | 1010.9 |
| 20260506004414 | 22 | 214 | 4.8 | 32.2 | 0.00 | 0.00 | 0.00 | 59 | 1010.9 |
| 20260506003914 | 22 | 226 | 3.2 | 32.2 | 0.00 | 0.00 | 0.00 | 58 | 1010.7 |
| 20260506003414 | 22 | 215 | 3.2 | 32.2 | 0.00 | 0.00 | 0.00 | 57 | 1010.8 |
| 20260506002914 | 23 | 186 | 3.2 | 32.2 | 0.00 | 0.00 | 0.00 | 54 | 1010.6 |
| 20260506002414 | 23 | 227 | 3.2 | 32.2 | 0.00 | 0.00 | 0.00 | 50 | 1010.5 |
| 20260506001913 | 24 | 242 | 4.8 | 32.2 | 0.00 | 0.00 | 0.00 | 46 | 1010.3 |
| 20260506001413 | 24 | 231 | 4.8 | 32.2 | 0.00 | 0.00 | 0.00 | 46 | 1010.2 |
| 20260506000913 | 25 | 226 | 3.2 | 32.2 | 0.00 | 0.00 | 0.00 | 46 | 1010.3 |
| 20260506000413 | 25 | 211 | 8.0 | 32.2 | 0.00 | 0.00 | 0.00 | 45 | 1010.2 |
| 20260505235913 | 25 | 257 | 4.8 | 32.2 | 0.00 | 0.00 | 0.00 | 45 | 1010.1 |
| 20260505235413 | 25 | 307 | 3.2 | 32.2 | 0.00 | 0.00 | 0.00 | 45 | 1010.1 |
| 20260505234912 | 25 | 231 | 3.2 | 32.2 | 0.00 | 0.00 | 0.00 | 45 | 1010.2 |
| 20260505234412 | 25 | 218 | 4.8 | 32.2 | 0.00 | 0.00 | 0.00 | 44 | 1010.0 |
| 20260505233912 | 25 | 234 | 4.8 | 32.2 | 0.00 | 0.00 | 0.00 | 43 | 1009.8 |
| 20260505233412 | 25 | 244 | 3.2 | 32.2 | 0.00 | 0.00 | 0.00 | 43 | 1009.8 |
| 20260505232912 | 25 | 216 | 4.8 | 32.2 | 0.00 | 0.00 | 0.00 | 42 | 1009.7 |
| 20260505232412 | 26 | 225 | 4.8 | 32.2 | 0.00 | 0.00 | 0.00 | 41 | 1009.6 |
| 20260505231912 | 26 | 252 | 3.2 | 32.2 | 0.00 | 0.00 | 0.00 | 40 | 1009.5 |
| 20260505231411 | 26 | 231 | 8.0 | 32.2 | 0.00 | 0.00 | 0.00 | 40 | 1009.5 |
| 20260505230911 | 26 | 231 | 4.8 | 32.2 | 0.00 | 0.00 | 0.00 | 40 | 1009.4 |
| 20260505230411 | 26 | 219 | 4.8 | 32.2 | 0.00 | 0.00 | 0.00 | 39 | 1009.4 |
| 20260505225911 | 26 | 231 | 8.0 | 32.2 | 0.00 | 0.00 | 0.00 | 39 | 1009.4 |
| 20260505225411 | 26 | 244 | 4.8 | 32.2 | 0.00 | 0.00 | 0.00 | 38 | 1009.4 |
| 20260505224911 | 27 | 243 | 4.8 | 32.2 | 0.00 | 0.00 | 0.00 | 36 | 1009.3 |
| 20260505224411 | 27 | 233 | 8.0 | 32.2 | 0.00 | 0.00 | 0.00 | 36 | 1009.3 |
| 20260505223910 | 27 | 222 | 3.2 | 32.2 | 0.00 | 0.00 | 0.00 | 37 | 1009.3 |
| 20260505223410 | 27 | 284 | 3.2 | 32.2 | 0.00 | 0.00 | 0.00 | 36 | 1009.3 |
| 20260505222910 | 28 | 244 | 4.8 | 32.2 | 0.00 | 0.00 | 0.00 | 34 | 1009.2 |
| 20260505222410 | 28 | 245 | 1.6 | 32.2 | 0.00 | 0.00 | 0.00 | 32 | 1009.1 |
| 20260505221910 | 28 | 289 | 4.8 | 32.2 | 0.00 | 0.00 | 0.00 | 31 | 1009.1 |
| 20260505221410 | 28 | 244 | 4.8 | 32.2 | 0.00 | 0.00 | 0.00 | 32 | 1009.0 |
| 20260505220910 | 28 | 281 | 4.8 | 32.2 | 0.00 | 0.00 | 0.00 | 35 | 1009.1 |
| 20260505220409 | 28 | 213 | 4.8 | 32.2 | 0.00 | 0.00 | 0.00 | 35 | 1008.9 |
| 20260505215909 | 28 | 223 | 11.3 | 32.2 | 0.00 | 0.00 | 0.00 | 35 | 1008.9 |
| 20260505215409 | 28 | 231 | 8.0 | 32.2 | 0.00 | 0.00 | 0.00 | 35 | 1008.9 |
| 20260505214909 | 28 | 219 | 8.0 | 32.2 | 0.00 | 0.00 | 0.00 | 35 | 1008.8 |
| 20260505214409 | 28 | 263 | 4.8 | 32.2 | 0.00 | 0.00 | 0.00 | 35 | 1008.8 |
| 20260505213909 | 28 | 199 | 8.0 | 32.2 | 0.00 | 0.00 | 0.00 | 34 | 1008.9 |
| 20260505213409 | 28 | 243 | 4.8 | 32.2 | 0.00 | 0.00 | 0.00 | 35 | 1008.8 |
| 20260505212908 | 28 | 223 | 4.8 | 29.0 | 0.00 | 0.00 | 0.00 | 36 | 1008.8 |
| 20260505212408 | 28 | 275 | 4.8 | 29.0 | 0.00 | 0.00 | 0.00 | 35 | 1008.9 |
| 20260505211908 | 29 | 222 | 11.3 | 29.0 | 0.00 | 0.00 | 0.00 | 35 | 1008.8 |
| 20260505211408 | 29 | 239 | 4.8 | 29.0 | 0.00 | 0.00 | 0.00 | 35 | 1008.8 |
| 20260505210908 | 29 | 217 | 4.8 | 29.0 | 0.00 | 0.00 | 0.00 | 34 | 1008.8 |
| 20260505210408 | 29 | 250 | 11.3 | 29.0 | 0.00 | 0.00 | 0.00 | 34 | 1008.6 |
| 20260505205908 | 29 | 225 | 9.7 | 29.0 | 0.00 | 0.00 | 0.00 | 34 | 1008.6 |
| 20260505205407 | 29 | 262 | 4.8 | 29.0 | 0.00 | 0.00 | 0.00 | 34 | 1008.5 |
| 20260505204907 | 29 | 230 | 9.7 | 29.0 | 0.00 | 0.00 | 0.00 | 34 | 1008.6 |
| 20260505204407 | 29 | 274 | 11.3 | 29.0 | 0.00 | 0.00 | 0.00 | 33 | 1008.6 |
| 20260505203907 | 29 | 242 | 9.7 | 29.0 | 0.00 | 0.00 | 0.00 | 33 | 1008.7 |
| 20260505203407 | 30 | 235 | 4.8 | 29.0 | 0.00 | 0.00 | 0.00 | 33 | 1008.8 |
| 20260505202907 | 30 | 223 | 9.7 | 29.0 | 0.00 | 0.00 | 0.00 | 32 | 1008.9 |
| 20260505202406 | 30 | 233 | 4.8 | 29.0 | 0.00 | 0.00 | 0.00 | 32 | 1008.8 |